Regional Weather Roundup
Issued by NWS

Home | Current Version | Previous Version | Text Only | Print | Product List | Glossary On
Versions: 1 2 3 4 5 6 7 8 9 10 11 12 13 14 15 16 17 18 19 20 21 22 23 24 25 26 27 28 29 30 31 32 33 34 35 36 37 38 39 40 41 42 43 44 45 46 47 48 49 50
000
ASUS43 KBIS 252320
RWRND

NORTH DAKOTA REGIONAL WEATHER ROUNDUP
NATIONAL WEATHER SERVICE BISMARCK ND
500 PM CST SUN JAN 25 2015

NOTE: "FAIR" INDICATES FEW OR NO CLOUDS BELOW 12,000 FEET WITH NO
SIGNIFICANT WEATHER AND/OR OBSTRUCTIONS TO VISIBILITY.


NDZ001>003-009>011-017-260000-
NORTHWEST NORTH DAKOTA

CITY           SKY/WX    TMP DP  RH WIND       PRES   REMARKS
WILLISTON      PTCLDY    43  31  62 SW9       29.82F
MINOT          CLOUDY    35  30  82 SW14      29.80F
MINOT AFB      CLOUDY    34  34  99 SW8       29.80F
$$

NDZ018>021-031>035-040>046-260000-
SOUTHWEST NORTH DAKOTA

CITY           SKY/WX    TMP DP  RH WIND       PRES   REMARKS
BISMARCK       CLOUDY    37  32  82 S5        29.92F
DICKINSON      MOCLDY    43  31  62 S10       29.85F
GARRISON         N/A     34  32  92 S7        29.84F
HETTINGER ARPT MOCLDY    42  29  59 S7        29.90F
$$

NDZ004>008-012>016-024-026-027-054-260000-
NORTHEAST NORTH DAKOTA

CITY           SKY/WX    TMP DP  RH WIND       PRES   REMARKS
GRAND FORKS    CLOUDY    26  18  71 S9        29.97R WCI  17
GRND FRKS AFB  CLOUDY    27  19  73 SW8       29.96S WCI  18
DEVILS LAKE    CLOUDY    27  21  80 S6        29.89S WCI  20
$$

NDZ022-023-025-028>030-036>039-047>053-260000-
SOUTHEAST NORTH DAKOTA

CITY           SKY/WX    TMP DP  RH WIND       PRES   REMARKS
FARGO          CLOUDY    26  17  68 S9        30.00R WCI  17
JAMESTOWN      CLOUDY    28  25  88 S12       29.90F WCI  18
$$




USA.gov is the U.S. government's official web portal to all federal, state and local government web resources and services.